When you browse on this site, cookies collect data to enhance your experience and personalize the content and advertising you see.
Visit our Privacy Policy to learn more. By continuing to use the site, you agree to this use of cookies and data.

Hourly Weather Newcastle

Today, 11 July, Saturday

Time Temperature Precipitation Wind Pressure Humidity
00:00 +13°C° 0 mm 1 mps 765 mmHg 94%
01:00 +13°C° 0 mm 1 mps 764 mmHg 95%
02:00 +13°C° 0.4 mm 2 mps 764 mmHg 96%
03:00 +13°C° 0.4 mm 2 mps 763 mmHg 97%
04:00 +12°C° 0 mm 3 mps 763 mmHg 97%
05:00 +13°C° 0.1 mm 2 mps 763 mmHg 97%
06:00 +13°C° 0.1 mm 1 mps 762 mmHg 96%
07:00 +13°C° 0.1 mm 1 mps 762 mmHg 96%
08:00 +14°C° 0.5 mm 1 mps 762 mmHg 96%
09:00 +14°C° 0.5 mm 1 mps 762 mmHg 95%
10:00 +15°C° 0 mm 1 mps 762 mmHg 93%
11:00 +15°C° 0.4 mm 1 mps 761 mmHg 91%
12:00 +16°C° 0.4 mm 1 mps 761 mmHg 89%
13:00 +18°C° 0.4 mm 1 mps 760 mmHg 86%
14:00 +18°C° 0.1 mm 1 mps 760 mmHg 86%
15:00 +18°C° 0.1 mm 1 mps 759 mmHg 85%
16:00 +18°C° 0 mm 1 mps 760 mmHg 85%
17:00 +16°C° 0.2 mm 1 mps 760 mmHg 87%
18:00 +15°C° 0.2 mm 2 mps 760 mmHg 89%
19:00 +14°C° 0.2 mm 2 mps 760 mmHg 91%
20:00 +13°C° 0 mm 3 mps 760 mmHg 91%
21:00 +13°C° 0 mm 3 mps 760 mmHg 91%
22:00 +13°C° 0 mm 4 mps 761 mmHg 91%
23:00 +12°C° 0 mm 4 mps 760 mmHg 92%

Tomorrow, 12 July, Sunday

Time Temperature Precipitation Wind Pressure Humidity
00:00 +12°C° 0 mm 4 mps 760 mmHg 92%
01:00 +12°C° 0 mm 3 mps 760 mmHg 93%
02:00 +11°C° 0 mm 3 mps 760 mmHg 93%
03:00 +11°C° 0 mm 3 mps 760 mmHg 94%
04:00 +11°C° 0 mm 3 mps 760 mmHg 94%
05:00 +10°C° 0 mm 2 mps 760 mmHg 94%
06:00 +10°C° 0 mm 2 mps 761 mmHg 94%
07:00 +9°C° 0 mm 2 mps 761 mmHg 95%
08:00 +12°C° 0 mm 1 mps 761 mmHg 87%
09:00 +15°C° 0 mm 1 mps 761 mmHg 79%
10:00 +18°C° 0 mm 1 mps 761 mmHg 72%
11:00 +18°C° 0 mm 1 mps 761 mmHg 68%
12:00 +19°C° 0 mm 1 mps 760 mmHg 64%
13:00 +20°C° 0 mm 1 mps 760 mmHg 60%
14:00 +18°C° 0.4 mm 2 mps 760 mmHg 68%
15:00 +17°C° 0.4 mm 2 mps 760 mmHg 75%
16:00 +16°C° 0.4 mm 2 mps 760 mmHg 83%
17:00 +15°C° 0.7 mm 2 mps 760 mmHg 86%
18:00 +14°C° 0.7 mm 2 mps 760 mmHg 89%
19:00 +13°C° 0.7 mm 2 mps 760 mmHg 92%
20:00 +13°C° 0.7 mm 2 mps 760 mmHg 92%
21:00 +13°C° 0.7 mm 1 mps 761 mmHg 93%
22:00 +13°C° 0.7 mm 1 mps 761 mmHg 93%
23:00 +13°C° 1.1 mm 1 mps 761 mmHg 95%

Day after tomorrow, 13 July, Monday

Time Temperature Precipitation Wind Pressure Humidity
00:00 +12°C° 1.1 mm 1 mps 761 mmHg 96%
01:00 +12°C° 1.1 mm 1 mps 760 mmHg 97%
02:00 +10°C° 0.4 mm 2 mps 760 mmHg 97%
03:00 +10°C° 0.4 mm 2 mps 760 mmHg 97%
04:00 +10°C° 0.4 mm 3 mps 760 mmHg 98%
05:00 +9°C° 0 mm 3 mps 761 mmHg 97%
06:00 +8°C° 0 mm 4 mps 761 mmHg 96%
07:00 +8°C° 0 mm 4 mps 762 mmHg 95%
08:00 +10°C° 0 mm 4 mps 762 mmHg 90%
09:00 +11°C° 0 mm 4 mps 762 mmHg 85%
10:00 +12°C° 0 mm 4 mps 762 mmHg 80%
11:00 +13°C° 0 mm 4 mps 761 mmHg 71%
12:00 +14°C° 0 mm 3 mps 761 mmHg 62%
13:00 +17°C° 0 mm 3 mps 760 mmHg 53%
14:00 +16°C° 0 mm 3 mps 760 mmHg 55%
15:00 +16°C° 0 mm 3 mps 760 mmHg 57%
16:00 +16°C° 0 mm 2 mps 760 mmHg 59%
17:00 +13°C° 0 mm 3 mps 760 mmHg 64%
18:00 +12°C° 0 mm 3 mps 761 mmHg 69%
19:00 +10°C° 0 mm 3 mps 761 mmHg 75%
20:00 +10°C° 0 mm 4 mps 761 mmHg 78%
21:00 +8°C° 0 mm 4 mps 761 mmHg 82%
22:00 +8°C° 0 mm 4 mps 761 mmHg 86%
23:00 +7°C° 0 mm 4 mps 761 mmHg 88%

14 July, Tuesday

Time Temperature Precipitation Wind Pressure Humidity
00:00 +7°C° 0 mm 4 mps 761 mmHg 90%
01:00 +6°C° 0 mm 4 mps 761 mmHg 92%
02:00 +7°C° 0.1 mm 5 mps 760 mmHg 90%
03:00 +7°C° 0.1 mm 5 mps 760 mmHg 87%
04:00 +7°C° 0.1 mm 6 mps 760 mmHg 85%
05:00 +8°C° 0.2 mm 7 mps 760 mmHg 85%
06:00 +8°C° 0.2 mm 7 mps 761 mmHg 84%
07:00 +9°C° 0.2 mm 8 mps 761 mmHg 83%
08:00 +10°C° 2.4 mm 8 mps 761 mmHg 85%
09:00 +11°C° 2.4 mm 9 mps 761 mmHg 88%
10:00 +12°C° 2.4 mm 9 mps 762 mmHg 90%
11:00 +13°C° 0.2 mm 10 mps 762 mmHg 83%
12:00 +14°C° 0.2 mm 10 mps 761 mmHg 75%
13:00 +16°C° 0.2 mm 11 mps 761 mmHg 68%
14:00 +14°C° 0.1 mm 10 mps 761 mmHg 70%
15:00 +14°C° 0.1 mm 10 mps 762 mmHg 73%
16:00 +13°C° 0.1 mm 10 mps 762 mmHg 75%
17:00 +13°C° 0.2 mm 9 mps 763 mmHg 78%
18:00 +12°C° 0.2 mm 9 mps 763 mmHg 80%
19:00 +12°C° 0.2 mm 8 mps 764 mmHg 83%
20:00 +12°C° 0.2 mm 8 mps 764 mmHg 84%
21:00 +12°C° 0.2 mm 8 mps 764 mmHg 84%
22:00 +11°C° 0.2 mm 8 mps 764 mmHg 85%
23:00 +11°C° 0.2 mm 8 mps 764 mmHg 85%

15 July, Wednesday

Time Temperature Precipitation Wind Pressure Humidity
00:00 +11°C° 0.2 mm 8 mps 763 mmHg 85%
01:00 +11°C° 0.2 mm 8 mps 763 mmHg 85%
02:00 +11°C° 0.2 mm 8 mps 763 mmHg 86%
03:00 +10°C° 0.2 mm 8 mps 763 mmHg 87%
04:00 +10°C° 0.2 mm 8 mps 763 mmHg 87%
05:00 +10°C° 0.3 mm 8 mps 763 mmHg 87%
06:00 +10°C° 0.3 mm 8 mps 763 mmHg 87%
07:00 +10°C° 0.3 mm 8 mps 763 mmHg 87%
08:00 +10°C° 0.3 mm 8 mps 763 mmHg 87%
09:00 +10°C° 0.3 mm 8 mps 763 mmHg 87%
10:00 +11°C° 0.3 mm 8 mps 763 mmHg 87%
11:00 +11°C° 0.4 mm 8 mps 763 mmHg 85%
12:00 +11°C° 0.4 mm 8 mps 762 mmHg 84%
13:00 +12°C° 0.4 mm 8 mps 762 mmHg 82%
14:00 +12°C° 0.3 mm 8 mps 762 mmHg 82%
15:00 +12°C° 0.3 mm 8 mps 762 mmHg 82%
16:00 +12°C° 0.3 mm 8 mps 762 mmHg 83%
17:00 +12°C° 0.5 mm 8 mps 762 mmHg 83%
18:00 +11°C° 0.5 mm 8 mps 762 mmHg 84%
19:00 +11°C° 0.5 mm 8 mps 763 mmHg 85%
20:00 +11°C° 0.4 mm 8 mps 763 mmHg 86%
21:00 +11°C° 0.4 mm 8 mps 763 mmHg 86%
22:00 +11°C° 0.4 mm 8 mps 763 mmHg 87%
23:00 +11°C° 0.3 mm 8 mps 763 mmHg 88%

16 July, Thursday

Time Temperature Precipitation Wind Pressure Humidity
00:00 +11°C° 0.3 mm 8 mps 763 mmHg 88%
01:00 +11°C° 0.3 mm 8 mps 763 mmHg 89%
02:00 +11°C° 0.4 mm 8 mps 763 mmHg 89%
03:00 +11°C° 0.4 mm 8 mps 763 mmHg 89%
04:00 +11°C° 0.4 mm 8 mps 762 mmHg 89%
05:00 +11°C° 0.4 mm 8 mps 763 mmHg 89%
06:00 +11°C° 0.4 mm 8 mps 763 mmHg 89%
07:00 +11°C° 0.4 mm 7 mps 764 mmHg 89%
08:00 +11°C° 0.3 mm 7 mps 764 mmHg 87%
09:00 +12°C° 0.3 mm 7 mps 764 mmHg 86%
10:00 +12°C° 0.3 mm 7 mps 764 mmHg 84%
11:00 +14°C° 0.4 mm 7 mps 764 mmHg 82%
12:00 +13°C° 0.4 mm 8 mps 764 mmHg 81%
13:00 +15°C° 0.4 mm 8 mps 764 mmHg 79%
14:00 +13°C° 0.3 mm 8 mps 764 mmHg 79%
15:00 +13°C° 0.3 mm 8 mps 764 mmHg 80%
16:00 +13°C° 0.3 mm 8 mps 764 mmHg 80%
17:00 +12°C° 0.3 mm 7 mps 765 mmHg 82%
18:00 +12°C° 0.3 mm 7 mps 765 mmHg 85%
19:00 +11°C° 0.3 mm 7 mps 766 mmHg 87%
20:00 +11°C° 0.2 mm 7 mps 766 mmHg 87%
21:00 +11°C° 0.2 mm 7 mps 766 mmHg 88%
22:00 +11°C° 0.2 mm 7 mps 766 mmHg 88%
23:00 +11°C° 0.1 mm 6 mps 766 mmHg 88%
Show more